START_TIME,STEP,MOV.,H8,t_acc.,H43,t_acc.,M25,t_acc.,H9,t_acc.
1979-07-03 03:00:30.350 ,1,0,0.,12.0,0.,12.0,0.,12.0,0.,12.0
1979-07-03 03:00:42.350 ,1,0,0.,12.0,0.,12.0,0.,12.0,0.,12.0
1979-07-03 03:00:54.350 ,2,0,0.,12.0,0.,12.0,0.,12.0,0.,12.0
1979-07-03 03:01:06.350 ,2,0,0.,12.0,0.,12.0,0.,12.0,0.,12.0
1979-07-03 03:01:18.350 ,2,0,1.,12.0,0.,12.0,0.,12.0,0.,12.0
1979-07-03 03:01:30.350 ,2,0,0.,12.0,0.,12.0,0.,12.0,0.,12.0
1979-07-03 03:01:42.350 ,3,0,0.,12.0,0.,12.0,0.,12.0,0.,12.0
1979-07-03 03:01:54.350 ,3,0,0.,12.0,0.,12.0,0.,12.0,0.,12.0
1979-07-03 03:02:06.350 ,3,0,0.,12.0,0.,12.0,0.,12.0,0.,12.0
1979-07-03 03:02:18.350 ,3,0,0.,12.0,0.,12.0,0.,12.0,0.,12.0
1979-07-03 03:02:30.350 ,4,0,0.,12.0,0.,12.0,0.,12.0,0.,12.0
1979-07-03 03:02:42.350 ,4,0,0.,12.0,0.,12.0,0.,12.0,0.,12.0
1979-07-03 03:02:54.350 ,4,0,0.,12.0,0.,12.0,0.,12.0,0.,12.0
1979-07-03 03:03:06.350 ,4,0,0.,12.0,0.,12.0,0.,12.0,0.,12.0
1979-07-03 03:03:18.350 ,5,0,0.,12.0,0.,12.0,0.,12.0,0.,12.0
1979-07-03 03:03:30.350 ,5,0,0.,12.0,0.,12.0,0.,12.0,0.,12.0
1979-07-03 03:03:42.350 ,5,0,0.,12.0,0.,12.0,0.,12.0,0.,12.0
1979-07-03 03:03:54.350 ,5,0,0.,12.0,0.,12.0,0.,12.0,0.,12.0
1979-07-03 03:04:06.350 ,6,0,0.,12.0,0.,12.0,0.,12.0,0.,12.0
1979-07-03 03:04:18.350 ,6,0,0.,12.0,0.,12.0,0.,12.0,0.,12.0
1979-07-03 03:04:30.350 ,6,0,0.,12.0,0.,12.0,0.,12.0,0.,12.0
1979-07-03 03:04:42.350 ,6,0,0.,12.0,0.,12.0,0.,12.0,0.,12.0
1979-07-03 03:04:54.350 ,7,0,0.,12.0,0.,12.0,0.,12.0,0.,12.0
1979-07-03 03:05:06.350 ,7,0,0.,12.0,0.,12.0,0.,12.0,0.,12.0
1979-07-03 03:05:18.350 ,7,0,0.,12.0,0.,12.0,0.,12.0,0.,12.0
1979-07-03 03:05:30.350 ,7,0,0.,12.0,0.,12.0,0.,12.0,0.,12.0
1979-07-03 03:05:42.350 ,7,0,0.,12.0,0.,12.0,0.,12.0,0.,12.0
1979-07-03 03:05:54.350 ,7,0,0.,12.0,0.,12.0,0.,12.0,0.,12.0
1979-07-03 03:06:06.350 ,7,0,0.,12.0,0.,12.0,0.,12.0,0.,12.0
1979-07-03 03:06:18.350 ,7,0,0.,12.0,0.,12.0,0.,12.0,0.,12.0
1979-07-03 03:06:30.350 ,6,0,0.,12.0,0.,12.0,0.,12.0,0.,12.0
1979-07-03 03:06:42.350 ,6,0,0.,12.0,0.,12.0,0.,12.0,0.,12.0
1979-07-03 03:06:54.350 ,6,0,0.,12.0,0.,12.0,0.,12.0,0.,12.0
1979-07-03 03:07:06.350 ,6,0,0.,12.0,0.,12.0,0.,12.0,0.,12.0
1979-07-03 03:07:18.350 ,5,0,0.,12.0,0.,12.0,0.,12.0,0.,12.0
1979-07-03 03:07:30.350 ,5,0,0.,12.0,0.,12.0,0.,12.0,0.,12.0
1979-07-03 03:07:42.350 ,5,0,0.,12.0,0.,12.0,0.,12.0,0.,12.0
1979-07-03 03:07:54.350 ,5,0,0.,12.0,0.,12.0,0.,12.0,0.,12.0
1979-07-03 03:08:06.350 ,4,0,0.,12.0,0.,12.0,0.,12.0,0.,12.0
1979-07-03 03:08:18.350 ,4,0,0.,12.0,0.,12.0,0.,12.0,0.,12.0
1979-07-03 03:08:30.350 ,4,0,0.,12.0,0.,12.0,0.,12.0,0.,12.0
1979-07-03 03:08:42.350 ,4,0,0.,12.0,0.,12.0,0.,12.0,0.,12.0
1979-07-03 03:08:54.350 ,3,0,0.,12.0,0.,12.0,0.,12.0,0.,12.0
1979-07-03 03:09:06.350 ,3,0,0.,12.0,0.,12.0,0.,12.0,0.,12.0
1979-07-03 03:09:18.350 ,3,0,0.,12.0,0.,12.0,0.,12.0,0.,12.0
1979-07-03 03:09:30.350 ,3,0,0.,12.0,0.,12.0,0.,12.0,0.,12.0
1979-07-03 03:09:42.350 ,2,0,0.,12.0,0.,12.0,0.,12.0,0.,12.0
1979-07-03 03:09:54.350 ,2,0,0.,12.0,0.,12.0,0.,12.0,0.,12.0
1979-07-03 03:10:06.350 ,2,0,0.,12.0,0.,12.0,0.,12.0,0.,12.0
1979-07-03 03:10:18.350 ,2,0,0.,12.0,0.,12.0,0.,12.0,0.,12.0
1979-07-03 03:10:30.340 ,1,0,0.,12.0,0.,12.0,0.,12.0,0.,12.0
1979-07-03 03:10:42.340 ,1,0,0.,12.0,0.,12.0,0.,12.0,0.,12.0
1979-07-03 03:10:54.340 ,1,0,0.,12.0,0.,12.0,0.,12.0,0.,12.0
1979-07-03 03:11:06.340 ,1,0,0.,12.0,0.,12.0,0.,12.0,0.,12.0
1979-07-03 03:11:18.340 ,0,0,0.,12.0,0.,12.0,0.,12.0,0.,12.0
1979-07-03 03:11:30.340 ,0,0,0.,12.0,0.,12.0,0.,12.0,0.,12.0
1979-07-03 03:11:42.340 ,0,0,0.,12.0,0.,12.0,0.,12.0,0.,12.0
1979-07-03 03:11:54.340 ,0,0,0.,12.0,0.,12.0,0.,12.0,0.,12.0
1979-07-03 03:12:06.340 ,0,0,0.,12.0,0.,12.0,0.,12.0,0.,12.0
1979-07-03 03:12:18.340 ,0,0,0.,12.0,0.,12.0,0.,12.0,0.,12.0
1979-07-03 03:12:30.340 ,0,0,0.,12.0,0.,12.0,0.,12.0,0.,12.0
1979-07-03 03:12:42.340 ,0,0,0.,12.0,0.,12.0,0.,12.0,0.,12.0
1979-07-03 03:12:54.340 ,1,0,0.,12.0,0.,12.0,0.,12.0,0.,12.0
1979-07-03 03:13:06.340 ,1,0,0.,12.0,0.,12.0,0.,12.0,0.,12.0
1979-07-03 03:13:18.340 ,1,0,0.,12.0,0.,12.0,0.,12.0,0.,12.0
1979-07-03 03:13:30.340 ,1,0,0.,12.0,0.,12.0,0.,12.0,0.,12.0
1979-07-03 03:13:42.340 ,2,0,0.,12.0,0.,12.0,0.,12.0,0.,12.0
1979-07-03 03:13:54.340 ,2,0,0.,12.0,0.,12.0,0.,12.0,0.,12.0
1979-07-03 03:14:06.340 ,2,0,0.,12.0,0.,12.0,0.,12.0,0.,12.0
1979-07-03 03:14:18.340 ,2,0,0.,12.0,0.,12.0,0.,12.0,0.,12.0
1979-07-03 03:14:30.340 ,3,0,0.,12.0,0.,12.0,0.,12.0,0.,12.0
1979-07-03 03:14:42.340 ,3,0,0.,12.0,0.,12.0,0.,12.0,0.,12.0
1979-07-03 03:14:54.340 ,3,0,0.,12.0,0.,12.0,0.,12.0,0.,12.0
1979-07-03 03:15:06.340 ,3,0,0.,12.0,0.,12.0,0.,12.0,0.,12.0
1979-07-03 03:15:18.340 ,4,0,0.,12.0,0.,12.0,0.,12.0,0.,12.0
1979-07-03 03:15:30.340 ,4,0,0.,12.0,0.,12.0,0.,12.0,0.,12.0
1979-07-03 03:15:42.340 ,4,0,0.,12.0,0.,12.0,0.,12.0,0.,12.0
1979-07-03 03:15:54.340 ,4,0,0.,12.0,0.,12.0,0.,12.0,0.,12.0
1979-07-03 03:16:06.340 ,5,0,0.,12.0,0.,12.0,0.,12.0,0.,12.0
1979-07-03 03:16:18.340 ,5,0,0.,12.0,0.,12.0,0.,12.0,0.,12.0
1979-07-03 03:16:30.340 ,5,0,0.,12.0,0.,12.0,0.,12.0,0.,12.0
1979-07-03 03:16:42.340 ,5,0,0.,12.0,0.,12.0,0.,12.0,0.,12.0
1979-07-03 03:16:54.340 ,6,0,0.,12.0,0.,12.0,0.,12.0,0.,12.0
1979-07-03 03:17:06.340 ,6,0,0.,12.0,0.,12.0,0.,12.0,0.,12.0
1979-07-03 03:17:18.340 ,6,0,0.,12.0,0.,12.0,0.,12.0,0.,12.0
1979-07-03 03:17:30.340 ,6,0,0.,12.0,0.,12.0,0.,12.0,0.,12.0
1979-07-03 03:17:42.340 ,7,0,0.,12.0,0.,12.0,0.,12.0,0.,12.0
1979-07-03 03:17:54.340 ,7,0,0.,12.0,0.,12.0,0.,12.0,0.,12.0
1979-07-03 03:18:06.340 ,7,0,0.,12.0,0.,12.0,0.,12.0,0.,12.0
1979-07-03 03:18:18.340 ,7,0,0.,12.0,0.,12.0,0.,12.0,0.,12.0
1979-07-03 03:18:30.340 ,7,0,0.,12.0,0.,12.0,0.,12.0,0.,12.0
1979-07-03 03:18:42.340 ,7,0,0.,12.0,0.,12.0,0.,12.0,0.,12.0
1979-07-03 03:18:54.340 ,7,0,0.,12.0,0.,12.0,0.,12.0,0.,12.0
1979-07-03 03:19:06.340 ,7,0,0.,12.0,0.,12.0,0.,12.0,0.,12.0
1979-07-03 03:19:18.340 ,6,0,0.,12.0,0.,12.0,0.,12.0,0.,12.0
1979-07-03 03:19:30.340 ,6,0,0.,12.0,0.,12.0,0.,12.0,0.,12.0
1979-07-03 03:19:42.340 ,6,0,0.,12.0,0.,12.0,0.,12.0,0.,12.0
1979-07-03 03:19:54.340 ,6,0,0.,12.0,0.,12.0,0.,12.0,0.,12.0
1979-07-03 03:20:06.340 ,5,0,0.,12.0,0.,12.0,0.,12.0,0.,12.0
1979-07-03 03:20:18.340 ,5,0,0.,12.0,0.,12.0,0.,12.0,0.,12.0
1979-07-03 03:20:30.340 ,5,0,0.,12.0,0.,12.0,0.,12.0,0.,12.0
1979-07-03 03:20:42.340 ,5,0,0.,12.0,0.,12.0,0.,12.0,0.,12.0
1979-07-03 03:20:54.340 ,4,0,0.,12.0,0.,12.0,0.,12.0,0.,12.0
1979-07-03 03:21:06.340 ,4,0,0.,12.0,0.,12.0,0.,12.0,0.,12.0
1979-07-03 03:21:18.340 ,4,0,0.,12.0,0.,12.0,0.,12.0,0.,12.0
1979-07-03 03:21:30.340 ,4,0,0.,12.0,0.,12.0,0.,12.0,0.,12.0
1979-07-03 03:21:42.340 ,3,0,0.,12.0,0.,12.0,0.,12.0,0.,12.0
1979-07-03 03:21:54.340 ,3,0,0.,12.0,0.,12.0,0.,12.0,0.,12.0
1979-07-03 03:22:06.340 ,3,0,0.,12.0,0.,12.0,0.,12.0,0.,12.0
1979-07-03 03:22:18.340 ,3,0,0.,12.0,0.,12.0,0.,12.0,0.,12.0
1979-07-03 03:22:30.340 ,2,0,0.,12.0,0.,12.0,0.,12.0,0.,12.0
1979-07-03 03:22:42.340 ,2,0,0.,12.0,0.,12.0,0.,12.0,0.,12.0
1979-07-03 03:22:54.340 ,2,0,0.,12.0,0.,12.0,0.,12.0,0.,12.0
1979-07-03 03:23:06.340 ,2,0,0.,12.0,0.,12.0,0.,12.0,0.,12.0
1979-07-03 03:23:18.340 ,1,0,0.,12.0,0.,12.0,0.,12.0,0.,12.0
1979-07-03 03:23:30.340 ,1,0,0.,12.0,0.,12.0,0.,12.0,0.,12.0
1979-07-03 03:23:42.340 ,1,0,1.,12.0,0.,12.0,0.,12.0,0.,12.0
1979-07-03 03:23:54.340 ,1,0,0.,12.0,0.,12.0,0.,12.0,0.,12.0
1979-07-03 03:24:06.340 ,0,0,0.,12.0,0.,12.0,0.,12.0,0.,12.0
1979-07-03 03:24:18.340 ,0,0,0.,12.0,0.,12.0,0.,12.0,0.,12.0
1979-07-03 03:24:30.340 ,0,0,0.,12.0,0.,12.0,0.,12.0,0.,12.0
1979-07-03 03:24:42.340 ,0,0,0.,12.0,0.,12.0,0.,12.0,0.,12.0
1979-07-03 03:24:54.340 ,0,0,0.,12.0,0.,12.0,0.,12.0,0.,12.0
1979-07-03 03:25:06.340 ,0,0,0.,12.0,0.,12.0,0.,12.0,0.,12.0
1979-07-03 03:25:18.340 ,0,0,0.,12.0,0.,12.0,0.,12.0,0.,12.0
1979-07-03 03:25:30.340 ,0,0,0.,12.0,0.,12.0,0.,12.0,0.,12.0
1979-07-03 03:25:42.340 ,1,0,0.,12.0,0.,12.0,0.,12.0,0.,12.0
1979-07-03 03:25:54.340 ,1,0,0.,12.0,0.,12.0,0.,12.0,0.,12.0
1979-07-03 03:26:06.340 ,1,0,0.,12.0,0.,12.0,0.,12.0,0.,12.0
1979-07-03 03:26:18.340 ,1,0,0.,12.0,0.,12.0,0.,12.0,0.,12.0
1979-07-03 03:26:30.340 ,2,0,0.,12.0,0.,12.0,0.,12.0,0.,12.0
1979-07-03 03:26:42.340 ,2,0,0.,12.0,0.,12.0,0.,12.0,0.,12.0
1979-07-03 03:26:54.340 ,2,0,0.,12.0,0.,12.0,0.,12.0,0.,12.0
1979-07-03 03:27:06.340 ,2,0,0.,12.0,0.,12.0,0.,12.0,0.,12.0
1979-07-03 03:27:18.340 ,3,0,0.,12.0,0.,12.0,0.,12.0,0.,12.0
1979-07-03 03:27:30.340 ,3,0,0.,12.0,0.,12.0,0.,12.0,0.,12.0
1979-07-03 03:27:42.340 ,3,0,0.,12.0,0.,12.0,0.,12.0,0.,12.0
1979-07-03 03:27:54.340 ,3,0,0.,12.0,0.,12.0,0.,12.0,0.,12.0
1979-07-03 03:28:06.340 ,4,0,0.,12.0,0.,12.0,0.,12.0,0.,12.0
1979-07-03 03:28:18.340 ,4,0,0.,12.0,0.,12.0,0.,12.0,0.,12.0
1979-07-03 03:28:30.340 ,4,0,0.,12.0,0.,12.0,0.,12.0,0.,12.0
1979-07-03 03:28:42.340 ,4,0,0.,12.0,0.,12.0,0.,12.0,0.,12.0
1979-07-03 03:28:54.340 ,5,0,0.,12.0,0.,12.0,0.,12.0,0.,12.0
1979-07-03 03:29:06.340 ,5,0,0.,12.0,0.,12.0,0.,12.0,0.,12.0
1979-07-03 03:29:18.340 ,5,0,0.,12.0,0.,12.0,0.,12.0,0.,12.0
1979-07-03 03:29:30.340 ,5,0,0.,12.0,0.,12.0,0.,12.0,0.,12.0
1979-07-03 03:29:42.340 ,6,0,0.,12.0,0.,12.0,0.,12.0,0.,12.0
1979-07-03 03:29:54.340 ,6,0,0.,12.0,0.,12.0,0.,12.0,0.,12.0
1979-07-03 03:30:06.340 ,6,0,0.,12.0,0.,12.0,0.,12.0,0.,12.0
1979-07-03 03:30:18.340 ,6,0,0.,12.0,0.,12.0,0.,12.0,0.,12.0
1979-07-03 03:30:30.340 ,7,0,0.,12.0,0.,12.0,0.,12.0,0.,12.0
1979-07-03 03:30:42.340 ,7,0,0.,12.0,0.,12.0,0.,12.0,0.,12.0
1979-07-03 03:30:54.340 ,7,0,0.,12.0,0.,12.0,0.,12.0,0.,12.0
1979-07-03 03:31:06.340 ,7,0,0.,12.0,0.,12.0,0.,12.0,0.,12.0
1979-07-03 03:31:18.340 ,3,1,0.,12.0,0.,12.0,0.,12.0,0.,12.0
1979-07-03 03:31:30.340 ,3,1,0.,12.0,0.,12.0,0.,12.0,0.,12.0
1979-07-03 03:31:42.340 ,0,1,0.,12.0,0.,12.0,0.,12.0,0.,12.0
1979-07-03 03:31:54.340 ,0,1,0.,12.0,0.,12.0,0.,12.0,0.,12.0
1979-07-03 03:32:06.340 ,4,1,0.,12.0,0.,12.0,0.,12.0,0.,12.0
1979-07-03 03:32:18.340 ,4,1,0.,12.0,0.,12.0,0.,12.0,0.,12.0
1979-07-03 03:32:30.340 ,7,1,0.,12.0,0.,12.0,0.,12.0,0.,12.0
1979-07-03 03:32:42.340 ,7,1,0.,12.0,0.,12.0,0.,12.0,0.,12.0
1979-07-03 03:32:54.340 ,3,1,0.,12.0,0.,12.0,0.,12.0,0.,12.0
1979-07-03 03:33:06.340 ,3,1,0.,12.0,0.,12.0,0.,12.0,0.,12.0
1979-07-03 03:33:18.340 ,0,1,0.,12.0,0.,12.0,0.,12.0,0.,12.0
1979-07-03 03:33:30.340 ,0,1,0.,12.0,0.,12.0,0.,12.0,0.,12.0
1979-07-03 03:33:42.340 ,4,1,0.,12.0,0.,12.0,0.,12.0,0.,12.0
1979-07-03 03:33:54.340 ,4,1,0.,12.0,0.,12.0,0.,12.0,0.,12.0
1979-07-03 03:34:06.340 ,7,1,0.,12.0,0.,12.0,0.,12.0,0.,12.0
1979-07-03 03:34:18.340 ,7,1,0.,12.0,0.,12.0,0.,12.0,0.,12.0
1979-07-03 03:34:30.340 ,3,1,0.,12.0,0.,12.0,0.,12.0,0.,12.0
1979-07-03 03:34:42.340 ,3,1,0.,12.0,0.,12.0,0.,12.0,0.,12.0
1979-07-03 03:34:54.340 ,0,1,0.,12.0,0.,12.0,0.,12.0,0.,12.0
1979-07-03 03:35:06.340 ,0,1,0.,12.0,0.,12.0,0.,12.0,0.,12.0
1979-07-03 03:35:18.340 ,4,1,0.,12.0,0.,12.0,0.,12.0,0.,12.0
1979-07-03 03:35:30.340 ,4,1,0.,12.0,0.,12.0,0.,12.0,0.,12.0
1979-07-03 03:35:42.340 ,7,1,0.,12.0,0.,12.0,0.,12.0,0.,12.0
1979-07-03 03:35:54.340 ,7,1,0.,12.0,0.,12.0,0.,12.0,0.,12.0
1979-07-03 03:36:06.340 ,3,1,0.,12.0,0.,12.0,0.,12.0,0.,12.0
1979-07-03 03:36:18.340 ,3,1,0.,12.0,0.,12.0,0.,12.0,0.,12.0
1979-07-03 03:36:30.340 ,0,1,0.,12.0,0.,12.0,0.,12.0,0.,12.0
1979-07-03 03:36:42.340 ,0,1,0.,12.0,0.,12.0,0.,12.0,0.,12.0
1979-07-03 03:36:54.340 ,4,1,0.,12.0,0.,12.0,0.,12.0,0.,12.0
1979-07-03 03:37:06.340 ,4,1,0.,12.0,0.,12.0,0.,12.0,0.,12.0
1979-07-03 03:37:18.340 ,7,1,0.,12.0,0.,12.0,0.,12.0,0.,12.0
1979-07-03 03:37:30.340 ,7,1,0.,12.0,0.,12.0,0.,12.0,0.,12.0
1979-07-03 03:37:42.340 ,3,1,0.,12.0,0.,12.0,0.,12.0,0.,12.0
1979-07-03 03:37:54.340 ,3,1,0.,12.0,0.,12.0,0.,12.0,0.,12.0
1979-07-03 03:38:06.340 ,0,1,0.,12.0,0.,12.0,0.,12.0,0.,12.0
1979-07-03 03:38:18.340 ,0,1,0.,12.0,0.,12.0,0.,12.0,0.,12.0
1979-07-03 03:38:30.340 ,4,1,0.,12.0,0.,12.0,0.,12.0,0.,12.0
1979-07-03 03:38:42.340 ,4,1,0.,12.0,0.,12.0,0.,12.0,0.,12.0
1979-07-03 03:38:54.340 ,7,1,0.,12.0,0.,12.0,0.,12.0,0.,12.0
1979-07-03 03:39:06.340 ,7,1,0.,12.0,0.,12.0,0.,12.0,0.,12.0
1979-07-03 03:39:18.340 ,3,1,0.,12.0,0.,12.0,0.,12.0,0.,12.0
1979-07-03 03:39:30.340 ,3,1,0.,12.0,0.,12.0,0.,12.0,0.,12.0
1979-07-03 03:39:42.340 ,0,1,0.,12.0,0.,12.0,0.,12.0,0.,12.0
1979-07-03 03:39:54.340 ,0,1,0.,12.0,0.,12.0,0.,12.0,0.,12.0
1979-07-03 03:40:06.340 ,4,1,0.,12.0,0.,12.0,0.,12.0,0.,12.0
1979-07-03 03:40:18.340 ,4,1,0.,12.0,0.,12.0,0.,12.0,0.,12.0
1979-07-03 03:40:30.340 ,7,1,0.,12.0,0.,12.0,0.,12.0,0.,12.0
1979-07-03 03:40:42.340 ,7,1,0.,12.0,0.,12.0,0.,12.0,0.,12.0
1979-07-03 03:40:54.340 ,3,1,0.,12.0,0.,12.0,0.,12.0,0.,12.0
1979-07-03 03:41:06.340 ,3,1,0.,12.0,0.,12.0,0.,12.0,0.,12.0
1979-07-03 03:41:18.340 ,0,1,0.,12.0,0.,12.0,0.,12.0,0.,12.0
1979-07-03 03:41:30.340 ,0,1,0.,12.0,0.,12.0,0.,12.0,0.,12.0
1979-07-03 03:41:42.340 ,0,0,0.,12.0,0.,12.0,0.,12.0,0.,12.0
1979-07-03 03:41:54.340 ,0,0,0.,12.0,0.,12.0,0.,12.0,0.,12.0
1979-07-03 03:42:06.340 ,0,0,0.,12.0,0.,12.0,0.,12.0,0.,12.0
1979-07-03 03:42:18.340 ,0,0,0.,12.0,0.,12.0,0.,12.0,0.,12.0
1979-07-03 03:42:30.340 ,5,0,0.,12.0,0.,12.0,0.,12.0,0.,12.0
1979-07-03 03:42:42.340 ,5,0,0.,12.0,0.,12.0,0.,12.0,0.,12.0
1979-07-03 03:42:54.340 ,5,0,0.,12.0,0.,12.0,0.,12.0,0.,12.0
1979-07-03 03:43:06.340 ,5,0,0.,12.0,0.,12.0,0.,12.0,0.,12.0
1979-07-03 03:43:18.340 ,4,0,0.,12.0,0.,12.0,0.,12.0,0.,12.0
1979-07-03 03:43:30.340 ,4,0,0.,12.0,0.,12.0,0.,12.0,0.,12.0
1979-07-03 03:43:42.340 ,4,0,0.,12.0,0.,12.0,0.,12.0,0.,12.0
1979-07-03 03:43:54.340 ,4,0,0.,12.0,0.,12.0,0.,12.0,0.,12.0
1979-07-03 03:44:06.340 ,3,0,0.,12.0,0.,12.0,0.,12.0,0.,12.0
1979-07-03 03:44:18.340 ,3,0,0.,12.0,0.,12.0,0.,12.0,0.,12.0
1979-07-03 03:44:30.340 ,3,0,0.,12.0,0.,12.0,0.,12.0,0.,12.0
1979-07-03 03:44:42.340 ,3,0,0.,12.0,0.,12.0,0.,12.0,0.,12.0
1979-07-03 03:44:54.340 ,2,0,0.,12.0,1.,12.0,0.,12.0,0.,12.0
1979-07-03 03:45:06.340 ,2,0,0.,12.0,0.,12.0,0.,12.0,0.,12.0
1979-07-03 03:45:18.340 ,2,0,0.,12.0,0.,12.0,0.,12.0,0.,12.0
1979-07-03 03:45:30.340 ,2,0,0.,12.0,0.,12.0,0.,12.0,0.,12.0
1979-07-03 03:45:42.340 ,1,0,0.,12.0,0.,12.0,0.,12.0,0.,12.0
1979-07-03 03:45:54.340 ,1,0,0.,12.0,0.,12.0,0.,12.0,0.,12.0
1979-07-03 03:46:06.340 ,1,0,0.,12.0,0.,12.0,0.,12.0,0.,12.0
1979-07-03 03:46:18.340 ,1,0,0.,12.0,0.,12.0,0.,12.0,0.,12.0
1979-07-03 03:46:30.340 ,0,0,0.,12.0,0.,12.0,0.,12.0,0.,12.0
1979-07-03 03:46:42.340 ,0,0,0.,12.0,0.,12.0,0.,12.0,0.,12.0
1979-07-03 03:46:54.340 ,0,0,0.,12.0,0.,12.0,0.,12.0,0.,12.0
1979-07-03 03:47:06.340 ,0,0,0.,12.0,0.,12.0,0.,12.0,0.,12.0
1979-07-03 03:47:18.340 ,0,0,0.,12.0,0.,12.0,0.,12.0,0.,12.0
1979-07-03 03:47:30.340 ,0,0,0.,12.0,0.,12.0,0.,12.0,0.,12.0
1979-07-03 03:47:42.340 ,0,0,0.,12.0,0.,12.0,0.,12.0,0.,12.0
1979-07-03 03:47:54.340 ,0,0,0.,12.0,0.,12.0,0.,12.0,0.,12.0
1979-07-03 03:48:06.340 ,1,0,0.,12.0,0.,12.0,0.,12.0,0.,12.0
1979-07-03 03:48:18.340 ,1,0,0.,12.0,0.,12.0,0.,12.0,0.,12.0
1979-07-03 03:48:30.340 ,1,0,0.,12.0,0.,12.0,0.,12.0,0.,12.0
1979-07-03 03:48:42.340 ,1,0,0.,12.0,0.,12.0,0.,12.0,0.,12.0
1979-07-03 03:48:54.340 ,2,0,0.,12.0,0.,12.0,0.,12.0,0.,12.0
1979-07-03 03:49:06.340 ,2,0,0.,12.0,0.,12.0,0.,12.0,0.,12.0
1979-07-03 03:49:18.340 ,2,0,0.,12.0,0.,12.0,0.,12.0,0.,12.0
1979-07-03 03:49:30.340 ,2,0,0.,12.0,0.,12.0,0.,12.0,0.,12.0
1979-07-03 03:49:42.340 ,3,0,0.,12.0,0.,12.0,0.,12.0,0.,12.0
1979-07-03 03:49:54.340 ,3,0,0.,12.0,0.,12.0,0.,12.0,0.,12.0
1979-07-03 03:50:06.340 ,3,0,0.,12.0,0.,12.0,0.,12.0,0.,12.0
1979-07-03 03:50:18.340 ,3,0,0.,12.0,0.,12.0,0.,12.0,0.,12.0
1979-07-03 03:50:30.340 ,4,0,0.,12.0,0.,12.0,0.,12.0,0.,12.0
1979-07-03 03:50:42.340 ,4,0,0.,12.0,0.,12.0,0.,12.0,0.,12.0
1979-07-03 03:50:54.340 ,4,0,0.,12.0,0.,12.0,0.,12.0,0.,12.0
1979-07-03 03:51:06.340 ,4,0,0.,12.0,0.,12.0,0.,12.0,0.,12.0
1979-07-03 03:51:18.340 ,5,0,0.,12.0,0.,12.0,1.,12.0,0.,12.0
1979-07-03 03:51:30.340 ,5,0,0.,12.0,0.,12.0,0.,12.0,0.,12.0
1979-07-03 03:51:42.340 ,5,0,0.,12.0,0.,12.0,0.,12.0,0.,12.0
1979-07-03 03:51:54.340 ,5,0,0.,12.0,0.,12.0,0.,12.0,0.,12.0
1979-07-03 03:52:06.340 ,6,0,0.,12.0,0.,12.0,0.,12.0,0.,12.0
1979-07-03 03:52:18.340 ,6,0,0.,12.0,0.,12.0,0.,12.0,0.,12.0
1979-07-03 03:52:30.340 ,6,0,0.,12.0,0.,12.0,0.,12.0,0.,12.0
1979-07-03 03:52:42.340 ,6,0,0.,12.0,0.,12.0,0.,12.0,0.,12.0
1979-07-03 03:52:54.340 ,7,0,0.,12.0,0.,12.0,0.,12.0,0.,12.0
1979-07-03 03:53:06.340 ,7,0,0.,12.0,0.,12.0,0.,12.0,0.,12.0
1979-07-03 03:53:18.340 ,7,0,0.,12.0,0.,12.0,0.,12.0,0.,12.0
1979-07-03 03:53:30.340 ,7,0,0.,12.0,0.,12.0,0.,12.0,0.,12.0
1979-07-03 03:53:42.340 ,7,0,0.,12.0,0.,12.0,0.,12.0,0.,12.0
1979-07-03 03:53:54.340 ,7,0,0.,12.0,0.,12.0,0.,12.0,0.,12.0
1979-07-03 03:54:06.340 ,7,0,0.,12.0,0.,12.0,0.,12.0,0.,12.0
1979-07-03 03:54:18.340 ,7,0,0.,12.0,0.,12.0,0.,12.0,0.,12.0
1979-07-03 03:54:30.340 ,6,0,0.,12.0,0.,12.0,0.,12.0,0.,12.0
1979-07-03 03:54:42.340 ,6,0,0.,12.0,0.,12.0,0.,12.0,0.,12.0
1979-07-03 03:54:54.340 ,6,0,0.,12.0,0.,12.0,0.,12.0,0.,12.0
1979-07-03 03:55:06.340 ,6,0,0.,12.0,0.,12.0,0.,12.0,0.,12.0
1979-07-03 03:55:18.340 ,5,0,0.,12.0,0.,12.0,0.,12.0,0.,12.0
1979-07-03 03:55:30.340 ,5,0,0.,12.0,0.,12.0,0.,12.0,0.,12.0
1979-07-03 03:55:42.340 ,5,0,0.,12.0,0.,12.0,0.,12.0,0.,12.0
1979-07-03 03:55:54.340 ,5,0,0.,12.0,0.,12.0,0.,12.0,0.,12.0
1979-07-03 03:56:06.340 ,4,0,0.,12.0,0.,12.0,0.,12.0,0.,12.0
1979-07-03 03:56:18.340 ,4,0,0.,12.0,0.,12.0,0.,12.0,0.,12.0
1979-07-03 03:56:30.340 ,4,0,0.,12.0,0.,12.0,0.,12.0,0.,12.0
1979-07-03 03:56:42.340 ,4,0,0.,12.0,0.,12.0,0.,12.0,0.,12.0
1979-07-03 03:56:54.340 ,3,0,0.,12.0,0.,12.0,0.,12.0,0.,12.0
1979-07-03 03:57:06.340 ,3,0,0.,12.0,0.,12.0,0.,12.0,0.,12.0
1979-07-03 03:57:18.340 ,3,0,0.,12.0,0.,12.0,0.,12.0,0.,12.0
1979-07-03 03:57:30.340 ,3,0,0.,12.0,0.,12.0,0.,12.0,0.,12.0
1979-07-03 03:57:42.340 ,2,0,0.,12.0,0.,12.0,0.,12.0,0.,12.0
1979-07-03 03:57:54.340 ,2,0,0.,12.0,0.,12.0,0.,12.0,0.,12.0
1979-07-03 03:58:06.340 ,2,0,0.,12.0,0.,12.0,0.,12.0,0.,12.0
1979-07-03 03:58:18.340 ,2,0,,0,,0,,0,,0
1979-07-03 03:58:30.340 ,1,0,0.,12.0,0.,12.0,0.,12.0,0.,12.0
1979-07-03 03:58:42.340 ,1,0,0.,12.0,0.,12.0,0.,12.0,0.,12.0
1979-07-03 03:58:54.340 ,1,0,0.,12.0,0.,12.0,0.,12.0,0.,12.0
1979-07-03 03:59:06.340 ,1,0,0.,12.0,0.,12.0,0.,12.0,0.,12.0
1979-07-03 03:59:18.340 ,0,0,0.,12.0,0.,12.0,0.,12.0,0.,12.0
1979-07-03 03:59:30.340 ,0,0,0.,12.0,0.,12.0,0.,12.0,0.,12.0
1979-07-03 03:59:42.340 ,0,0,0.,12.0,0.,12.0,0.,12.0,0.,12.0
1979-07-03 03:59:54.340 ,0,0,0.,12.0,0.,12.0,0.,12.0,0.,12.0
1979-07-03 04:00:06.340 ,0,0,0.,12.0,0.,12.0,0.,12.0,0.,12.0
1979-07-03 04:00:18.340 ,0,0,0.,12.0,0.,12.0,0.,12.0,0.,12.0
1979-07-03 04:00:30.340 ,0,0,0.,12.0,0.,12.0,0.,12.0,0.,12.0
1979-07-03 04:00:42.340 ,0,0,0.,12.0,0.,12.0,0.,12.0,0.,12.0
1979-07-03 04:00:54.340 ,1,0,0.,12.0,0.,12.0,0.,12.0,0.,12.0
1979-07-03 04:01:06.340 ,1,0,0.,12.0,0.,12.0,0.,12.0,0.,12.0
1979-07-03 04:01:18.340 ,1,0,0.,12.0,0.,12.0,0.,12.0,0.,12.0
1979-07-03 04:01:30.340 ,1,0,0.,12.0,0.,12.0,0.,12.0,0.,12.0
1979-07-03 04:01:42.340 ,2,0,0.,12.0,0.,12.0,0.,12.0,0.,12.0
1979-07-03 04:01:54.340 ,2,0,0.,12.0,0.,12.0,0.,12.0,0.,12.0
1979-07-03 04:02:06.340 ,2,0,0.,12.0,0.,12.0,0.,12.0,0.,12.0
1979-07-03 04:02:18.340 ,2,0,0.,12.0,0.,12.0,0.,12.0,0.,12.0
1979-07-03 04:02:30.340 ,3,0,0.,12.0,0.,12.0,0.,12.0,0.,12.0
1979-07-03 04:02:42.340 ,3,0,0.,12.0,0.,12.0,0.,12.0,0.,12.0
1979-07-03 04:02:54.340 ,3,0,0.,12.0,0.,12.0,0.,12.0,0.,12.0
1979-07-03 04:03:06.340 ,3,0,0.,12.0,0.,12.0,0.,12.0,0.,12.0
1979-07-03 04:03:18.340 ,4,0,0.,12.0,0.,12.0,0.,12.0,0.,12.0
1979-07-03 04:03:30.340 ,4,0,0.,12.0,0.,12.0,0.,12.0,0.,12.0
1979-07-03 04:03:42.340 ,4,0,0.,12.0,0.,12.0,0.,12.0,0.,12.0
1979-07-03 04:03:54.340 ,4,0,0.,12.0,0.,12.0,0.,12.0,0.,12.0
1979-07-03 04:04:06.340 ,5,0,0.,12.0,0.,12.0,0.,12.0,0.,12.0
1979-07-03 04:04:18.340 ,5,0,0.,12.0,0.,12.0,0.,12.0,0.,12.0
1979-07-03 04:04:30.340 ,5,0,0.,12.0,0.,12.0,0.,12.0,0.,12.0
1979-07-03 04:04:42.340 ,5,0,0.,12.0,0.,12.0,0.,12.0,0.,12.0
1979-07-03 04:04:54.340 ,6,0,0.,12.0,0.,12.0,0.,12.0,0.,12.0
1979-07-03 04:05:06.340 ,6,0,0.,12.0,0.,12.0,0.,12.0,0.,12.0
1979-07-03 04:05:18.340 ,6,0,0.,12.0,0.,12.0,0.,12.0,0.,12.0
1979-07-03 04:05:30.340 ,6,0,0.,12.0,0.,12.0,0.,12.0,0.,12.0
1979-07-03 04:05:42.340 ,7,0,0.,12.0,0.,12.0,0.,12.0,0.,12.0
1979-07-03 04:05:54.340 ,7,0,0.,12.0,0.,12.0,0.,12.0,0.,12.0
1979-07-03 04:06:06.340 ,7,0,0.,12.0,0.,12.0,0.,12.0,0.,12.0
1979-07-03 04:06:18.340 ,7,0,0.,12.0,0.,12.0,0.,12.0,0.,12.0
1979-07-03 04:06:30.340 ,7,0,0.,12.0,0.,12.0,0.,12.0,0.,12.0
1979-07-03 04:06:42.340 ,7,0,0.,12.0,0.,12.0,0.,12.0,0.,12.0
1979-07-03 04:06:54.340 ,7,0,0.,12.0,0.,12.0,0.,12.0,0.,12.0
1979-07-03 04:07:06.340 ,7,0,0.,12.0,0.,12.0,0.,12.0,0.,12.0
1979-07-03 04:07:18.340 ,6,0,0.,12.0,0.,12.0,0.,12.0,0.,12.0
1979-07-03 04:07:30.340 ,6,0,0.,12.0,0.,12.0,0.,12.0,0.,12.0
1979-07-03 04:07:42.340 ,6,0,0.,12.0,0.,12.0,0.,12.0,0.,12.0
1979-07-03 04:07:54.340 ,6,0,0.,12.0,0.,12.0,0.,12.0,0.,12.0
1979-07-03 04:08:06.340 ,5,0,0.,12.0,0.,12.0,0.,12.0,0.,12.0
1979-07-03 04:08:18.340 ,5,0,0.,12.0,0.,12.0,0.,12.0,0.,12.0
1979-07-03 04:08:30.340 ,5,0,0.,12.0,0.,12.0,0.,12.0,0.,12.0
1979-07-03 04:08:42.340 ,5,0,0.,12.0,0.,12.0,0.,12.0,0.,12.0
1979-07-03 04:08:54.340 ,4,0,0.,12.0,0.,12.0,0.,12.0,0.,12.0
1979-07-03 04:09:06.340 ,4,0,0.,12.0,0.,12.0,0.,12.0,0.,12.0
1979-07-03 04:09:18.340 ,4,0,0.,12.0,0.,12.0,0.,12.0,0.,12.0
1979-07-03 04:09:30.340 ,4,0,0.,12.0,0.,12.0,0.,12.0,0.,12.0
1979-07-03 04:09:42.340 ,3,0,0.,12.0,0.,12.0,0.,12.0,0.,12.0
1979-07-03 04:09:54.340 ,3,0,0.,12.0,0.,12.0,0.,12.0,0.,12.0
1979-07-03 04:10:06.340 ,3,0,0.,12.0,0.,12.0,0.,12.0,0.,12.0
1979-07-03 04:10:18.340 ,3,0,0.,12.0,0.,12.0,0.,12.0,0.,12.0
1979-07-03 04:10:30.340 ,2,0,0.,12.0,0.,12.0,0.,12.0,0.,12.0
1979-07-03 04:10:42.340 ,2,0,0.,12.0,0.,12.0,0.,12.0,0.,12.0
1979-07-03 04:10:54.340 ,2,0,0.,12.0,0.,12.0,0.,12.0,0.,12.0
1979-07-03 04:11:06.340 ,2,0,0.,12.0,0.,12.0,0.,12.0,0.,12.0
1979-07-03 04:11:18.340 ,1,0,0.,12.0,0.,12.0,0.,12.0,0.,12.0
1979-07-03 04:11:30.340 ,1,0,0.,12.0,0.,12.0,0.,12.0,0.,12.0
1979-07-03 04:11:42.340 ,1,0,0.,12.0,0.,12.0,0.,12.0,0.,12.0
1979-07-03 04:11:54.340 ,1,0,0.,12.0,0.,12.0,0.,12.0,0.,12.0
1979-07-03 04:12:06.340 ,0,0,0.,12.0,0.,12.0,0.,12.0,0.,12.0
1979-07-03 04:12:18.340 ,0,0,0.,12.0,0.,12.0,0.,12.0,0.,12.0
1979-07-03 04:12:30.340 ,0,0,0.,12.0,0.,12.0,0.,12.0,0.,12.0
1979-07-03 04:12:42.340 ,0,0,0.,12.0,0.,12.0,0.,12.0,0.,12.0
1979-07-03 04:12:54.340 ,0,0,0.,12.0,0.,12.0,0.,12.0,0.,12.0
1979-07-03 04:13:06.340 ,0,0,0.,12.0,0.,12.0,0.,12.0,0.,12.0
1979-07-03 04:13:18.340 ,0,0,0.,12.0,0.,12.0,0.,12.0,0.,12.0
1979-07-03 04:13:30.340 ,0,0,0.,12.0,0.,12.0,0.,12.0,0.,12.0
1979-07-03 04:13:42.340 ,1,0,0.,12.0,0.,12.0,0.,12.0,0.,12.0
1979-07-03 04:13:54.340 ,1,0,0.,12.0,0.,12.0,0.,12.0,0.,12.0
1979-07-03 04:14:06.340 ,1,0,0.,12.0,0.,12.0,0.,12.0,0.,12.0
1979-07-03 04:14:18.340 ,1,0,0.,12.0,0.,12.0,0.,12.0,0.,12.0
1979-07-03 04:14:30.340 ,2,0,0.,12.0,0.,12.0,0.,12.0,0.,12.0
1979-07-03 04:14:42.340 ,2,0,0.,12.0,0.,12.0,0.,12.0,0.,12.0
1979-07-03 04:14:54.340 ,2,0,0.,12.0,0.,12.0,0.,12.0,0.,12.0
1979-07-03 04:15:06.340 ,2,0,0.,12.0,0.,12.0,0.,12.0,0.,12.0
1979-07-03 04:15:18.340 ,3,0,0.,12.0,0.,12.0,0.,12.0,0.,12.0
1979-07-03 04:15:30.340 ,3,0,0.,12.0,0.,12.0,0.,12.0,0.,12.0
1979-07-03 04:15:42.340 ,3,0,0.,12.0,0.,12.0,0.,12.0,0.,12.0
1979-07-03 04:15:54.340 ,3,0,0.,12.0,0.,12.0,0.,12.0,0.,12.0
1979-07-03 04:16:06.340 ,4,0,0.,12.0,0.,12.0,0.,12.0,0.,12.0
1979-07-03 04:16:18.340 ,4,0,0.,12.0,0.,12.0,0.,12.0,0.,12.0
1979-07-03 04:16:30.340 ,4,0,0.,12.0,0.,12.0,0.,12.0,0.,12.0
1979-07-03 04:16:42.340 ,4,0,0.,12.0,0.,12.0,0.,12.0,0.,12.0
1979-07-03 04:16:54.340 ,5,0,0.,12.0,0.,12.0,0.,12.0,0.,12.0
1979-07-03 04:17:06.340 ,5,0,0.,12.0,0.,12.0,0.,12.0,0.,12.0
1979-07-03 04:17:18.340 ,5,0,0.,12.0,0.,12.0,0.,12.0,0.,12.0
1979-07-03 04:17:30.340 ,5,0,0.,12.0,0.,12.0,0.,12.0,0.,12.0